Time,TemperatureF,DewpointF,PressureIn,WindDirection,WindDirectionDegrees,WindSpeedMPH,WindSpeedGustMPH,Humidity,HourlyPrecipIn,Conditions,Clouds,dailyrainin,SoftwareType,DateUTC
2013-11-06 00:13:00,44.0,33.0,30.52,West,267,0.0,0.0,66,0.00,,,0.00,,2013-11-06 05:13:00,
2013-11-06 00:23:00,44.0,29.0,30.51,West,267,0.0,0.0,55,0.00,,,0.00,,2013-11-06 05:23:00,
2013-11-06 00:44:00,44.0,33.0,30.51,West,265,0.0,0.0,64,0.00,,,0.00,,2013-11-06 05:44:00,
2013-11-06 00:54:00,44.0,33.0,30.50,West,265,0.0,0.0,66,0.00,,,0.00,,2013-11-06 05:54:00,
2013-11-06 01:13:00,44.0,32.0,30.50,West,265,0.0,0.0,62,0.00,,,0.00,,2013-11-06 06:13:00,
2013-11-06 01:22:00,44.0,32.0,30.50,West,265,0.0,0.0,63,0.00,,,0.00,,2013-11-06 06:22:00,
2013-11-06 01:42:00,44.0,31.0,30.49,West,265,0.0,0.0,61,0.00,,,0.00,,2013-11-06 06:42:00,
2013-11-06 01:52:00,45.0,31.0,30.49,West,265,0.0,0.0,58,0.00,,,0.00,,2013-11-06 06:52:00,
2013-11-06 02:12:00,45.0,32.0,30.48,West,265,0.0,0.0,61,0.00,,,0.00,,2013-11-06 07:12:00,
2013-11-06 02:22:00,45.0,32.0,30.47,West,265,0.0,0.0,61,0.00,,,0.00,,2013-11-06 07:22:00,
2013-11-06 02:42:00,46.0,33.0,30.47,West,265,0.0,0.0,60,0.00,,,0.00,,2013-11-06 07:42:00,
2013-11-06 02:52:00,46.0,33.0,30.47,West,265,0.0,0.0,61,0.00,,,0.00,,2013-11-06 07:52:00,
2013-11-06 03:12:00,46.0,34.0,30.47,West,265,0.0,0.0,62,0.00,,,0.00,,2013-11-06 08:12:00,
2013-11-06 03:22:00,46.0,34.0,30.46,West,265,0.0,0.0,62,0.00,,,0.00,,2013-11-06 08:22:00,
2013-11-06 03:42:00,46.0,33.0,30.45,West,265,0.0,0.0,60,0.00,,,0.00,,2013-11-06 08:42:00,
2013-11-06 03:52:00,46.0,34.0,30.44,West,265,0.0,0.0,63,0.00,,,0.00,,2013-11-06 08:52:00,
2013-11-06 04:12:00,46.0,35.0,30.44,West,265,0.0,0.0,64,0.00,,,0.00,,2013-11-06 09:12:00,
2013-11-06 04:22:00,47.0,37.0,30.44,West,265,0.0,0.0,67,0.00,,,0.00,,2013-11-06 09:22:00,
2013-11-06 04:43:00,47.0,37.0,30.44,West,265,0.0,0.0,67,0.00,,,0.00,,2013-11-06 09:43:00,
2013-11-06 04:53:00,47.0,35.0,30.44,West,265,0.0,0.0,64,0.00,,,0.00,,2013-11-06 09:53:00,
2013-11-06 05:23:00,47.0,38.0,30.43,West,265,0.0,0.0,70,0.00,,,0.00,,2013-11-06 10:23:00,
2013-11-06 05:42:00,47.0,39.0,30.43,West,265,0.0,0.0,75,0.00,,,0.00,,2013-11-06 10:42:00,
2013-11-06 05:53:00,48.0,41.0,30.43,West,265,0.0,0.0,77,0.00,,,0.00,,2013-11-06 10:53:00,
2013-11-06 06:22:00,48.0,43.0,30.43,West,265,0.0,0.0,82,0.00,,,0.00,,2013-11-06 11:22:00,
2013-11-06 06:42:00,48.0,44.0,30.43,West,265,0.0,0.0,86,0.00,,,0.00,,2013-11-06 11:42:00,
2013-11-06 06:52:00,48.0,44.0,30.42,West,265,0.0,0.0,87,0.00,,,0.00,,2013-11-06 11:52:00,
2013-11-06 07:02:00,48.0,44.0,30.42,West,265,0.0,0.0,87,0.00,,,0.00,,2013-11-06 12:02:00,
2013-11-06 07:12:00,48.0,44.0,30.42,West,265,0.0,0.0,87,0.00,,,0.00,,2013-11-06 12:12:00,
2013-11-06 07:22:00,48.0,45.0,30.42,West,265,0.0,0.0,88,0.00,,,0.00,,2013-11-06 12:22:00,
2013-11-06 07:42:00,49.0,46.0,30.42,West,265,0.0,0.0,90,0.00,,,0.00,,2013-11-06 12:42:00,
2013-11-06 07:52:00,49.0,46.0,30.42,West,265,0.0,0.0,90,0.00,,,0.00,,2013-11-06 12:52:00,
2013-11-06 08:12:00,49.0,46.0,30.42,West,265,0.0,0.0,91,0.00,,,0.00,,2013-11-06 13:12:00,
2013-11-06 08:22:00,49.0,47.0,30.42,West,265,0.0,0.0,92,0.00,,,0.00,,2013-11-06 13:22:00,
2013-11-06 08:42:00,49.0,47.0,30.42,West,265,0.0,0.0,92,0.00,,,0.00,,2013-11-06 13:42:00,
2013-11-06 08:52:00,50.0,48.0,30.42,West,265,0.0,0.0,93,0.00,,,0.00,,2013-11-06 13:52:00,
2013-11-06 09:12:00,50.0,48.0,30.42,West,265,0.0,0.0,92,0.00,,,0.00,,2013-11-06 14:12:00,
2013-11-06 09:22:00,51.0,49.0,30.42,West,265,0.0,0.0,92,0.00,,,0.00,,2013-11-06 14:22:00,
2013-11-06 09:42:00,51.0,49.0,30.42,North,359,0.0,3.0,92,0.00,,,0.00,,2013-11-06 14:42:00,
2013-11-06 09:52:00,52.0,50.0,30.42,ESE,120,1.0,3.0,92,0.00,,,0.00,,2013-11-06 14:52:00,
2013-11-06 10:11:00,53.0,50.0,30.42,South,184,0.0,2.0,91,0.00,,,0.00,,2013-11-06 15:11:00,
2013-11-06 10:22:00,53.0,50.0,30.42,South,179,0.0,6.0,90,0.00,,,0.00,,2013-11-06 15:22:00,
2013-11-06 10:43:00,54.0,51.0,30.42,SE,139,0.0,4.0,88,0.00,,,0.00,,2013-11-06 15:43:00,
2013-11-06 10:53:00,55.0,51.0,30.42,NNW,338,0.0,9.0,87,0.00,,,0.00,,2013-11-06 15:53:00,
2013-11-06 11:13:00,55.0,51.0,30.42,SSE,149,0.0,4.0,86,0.00,,,0.00,,2013-11-06 16:13:00,
2013-11-06 11:23:00,56.0,51.0,30.41,ESE,115,0.0,2.0,84,0.00,,,0.00,,2013-11-06 16:23:00,
2013-11-06 11:43:00,56.0,51.0,30.41,ESE,108,0.0,2.0,84,0.00,,,0.00,,2013-11-06 16:43:00,
2013-11-06 11:53:00,57.0,52.0,30.40,ESE,105,0.0,2.0,82,0.00,,,0.00,,2013-11-06 16:53:00,
2013-11-06 12:13:00,57.0,52.0,30.40,East,94,0.0,3.0,82,0.00,,,0.00,,2013-11-06 17:13:00,
2013-11-06 12:23:00,58.0,52.0,30.39,East,101,0.0,3.0,80,0.00,,,0.00,,2013-11-06 17:23:00,
2013-11-06 12:43:00,58.0,52.0,30.37,East,101,0.0,1.0,80,0.00,,,0.00,,2013-11-06 17:43:00,
2013-11-06 12:52:00,58.0,51.0,30.37,East,101,0.0,1.0,78,0.00,,,0.00,,2013-11-06 17:52:00,
2013-11-06 13:12:00,58.0,52.0,30.36,East,101,0.0,1.0,79,0.00,,,0.00,,2013-11-06 18:12:00,
2013-11-06 13:22:00,59.0,52.0,30.35,East,90,1.0,3.0,78,0.00,,,0.00,,2013-11-06 18:22:00,
2013-11-06 13:42:00,60.0,52.0,30.33,South,186,1.0,6.0,76,0.00,,,0.00,,2013-11-06 18:42:00,
2013-11-06 13:52:00,62.0,52.0,30.32,ESE,104,3.0,7.0,71,0.00,,,0.00,,2013-11-06 18:52:00,
2013-11-06 14:22:00,63.0,53.0,30.31,ESE,118,0.0,6.0,69,0.00,,,0.00,,2013-11-06 19:22:00,
2013-11-06 14:42:00,63.0,52.0,30.30,NNW,347,0.0,4.0,68,0.00,,,0.00,,2013-11-06 19:42:00,
2013-11-06 14:52:00,62.0,52.0,30.29,SSW,205,0.0,7.0,69,0.00,,,0.00,,2013-11-06 19:52:00,
2013-11-06 15:22:00,62.0,52.0,30.28,SSE,166,0.0,6.0,70,0.00,,,0.00,,2013-11-06 20:22:00,
2013-11-06 15:52:00,61.0,51.0,30.28,WSW,252,0.0,4.0,70,0.00,,,0.00,,2013-11-06 20:52:00,
2013-11-06 16:12:00,61.0,52.0,30.27,East,89,3.0,5.0,71,0.00,,,0.00,,2013-11-06 21:12:00,
2013-11-06 16:22:00,62.0,52.0,30.27,WSW,243,1.0,5.0,71,0.00,,,0.00,,2013-11-06 21:22:00,
2013-11-06 16:44:00,62.0,52.0,30.27,West,259,1.0,5.0,71,0.00,,,0.00,,2013-11-06 21:44:00,
2013-11-06 16:54:00,62.0,52.0,30.26,West,259,0.0,3.0,71,0.00,,,0.00,,2013-11-06 21:54:00,
2013-11-06 17:14:00,61.0,52.0,30.26,South,188,0.0,1.0,72,0.00,,,0.00,,2013-11-06 22:14:00,
2013-11-06 17:24:00,60.0,51.0,30.26,South,188,0.0,2.0,73,0.00,,,0.00,,2013-11-06 22:24:00,
2013-11-06 17:43:00,59.0,51.0,30.25,South,188,0.0,3.0,75,0.00,,,0.00,,2013-11-06 22:43:00,
2013-11-06 17:53:00,59.0,51.0,30.26,South,183,0.0,4.0,76,0.00,,,0.00,,2013-11-06 22:53:00,
2013-11-06 18:22:00,57.0,51.0,30.26,South,177,0.0,1.0,79,0.00,,,0.00,,2013-11-06 23:22:00,
2013-11-06 18:42:00,57.0,51.0,30.27,South,177,0.0,1.0,80,0.00,,,0.00,,2013-11-06 23:42:00,
2013-11-06 18:53:00,56.0,50.0,30.27,SW,220,0.0,2.0,81,0.00,,,0.00,,2013-11-06 23:53:00,
2013-11-06 19:12:00,56.0,51.0,30.27,South,188,0.0,4.0,82,0.00,,,0.00,,2013-11-07 00:12:00,
2013-11-06 19:22:00,56.0,51.0,30.27,SSW,200,1.0,7.0,82,0.00,,,0.00,,2013-11-07 00:22:00,
2013-11-06 19:42:00,56.0,51.0,30.27,SW,214,0.0,8.0,82,0.00,,,0.00,,2013-11-07 00:42:00,
2013-11-06 19:52:00,56.0,50.0,30.27,SW,214,0.0,2.0,81,0.00,,,0.00,,2013-11-07 00:52:00,
2013-11-06 20:22:00,55.0,50.0,30.27,SW,219,0.0,2.0,82,0.00,,,0.00,,2013-11-07 01:22:00,
2013-11-06 20:42:00,55.0,50.0,30.26,South,183,0.0,3.0,82,0.00,,,0.00,,2013-11-07 01:42:00,
2013-11-06 20:52:00,55.0,50.0,30.26,South,184,0.0,1.0,82,0.00,,,0.00,,2013-11-07 01:52:00,
2013-11-06 21:12:00,55.0,50.0,30.26,South,184,0.0,3.0,82,0.00,,,0.00,,2013-11-07 02:12:00,
2013-11-06 21:22:00,55.0,50.0,30.26,South,184,0.0,0.0,82,0.00,,,0.00,,2013-11-07 02:22:00,
2013-11-06 22:22:00,55.0,50.0,30.24,SSE,158,0.0,1.0,83,0.00,,,0.00,,2013-11-07 03:22:00,
2013-11-06 22:44:00,55.0,50.0,30.24,SSE,158,0.0,0.0,82,0.00,,,0.00,,2013-11-07 03:44:00,
2013-11-06 22:55:00,55.0,50.0,30.23,SSE,158,0.0,3.0,82,0.00,,,0.00,,2013-11-07 03:55:00,
2013-11-06 23:13:00,55.0,50.0,30.23,SSE,158,0.0,0.0,82,0.00,,,0.00,,2013-11-07 04:13:00,
2013-11-06 23:24:00,55.0,50.0,30.22,SSE,158,0.0,0.0,83,0.00,,,0.00,,2013-11-07 04:24:00,
2013-11-06 23:43:00,55.0,50.0,30.22,SSE,158,0.0,0.0,83,0.00,,,0.00,,2013-11-07 04:43:00,
2013-11-06 23:53:00,55.0,50.0,30.22,WSW,239,0.0,4.0,84,0.00,,,0.00,,2013-11-07 04:53:00,